Temp
73 74 73 73 74 74 75 75 75 77 77 78 78 78 78 78 78 78 76 79 80 80 82 82 82 82 82 82 81 81 81 80 80 80 80 79 80 80 79 80 80 79 79
73 73 73 73 73 73 74 74 75 76 77 76 77 77 78 78 77 77 78 78 80 80 81 83 82 82 82 81 81 81 81 80 80 80 80 80 78 79 79 79 79 79 79
74 74 73 73 74 74 75 75 76 76 76 76 75 76 77 77 78 77 78 78 80 81 81 82 81 81 81 82 81 81 80 80 80 80 80 79 79 79 79 79 79 79 79
75 74 73 73 75 74 74 74 74 74 74 73 74 73 74 77 78 77 78 78 78 81 81 81 80 81 82 82 82 81 80 80 79 80 80 79 79 79 79 78 79 78 78
76 73 74 75 74 74 74 75 74 73 73 72 75 73 73 74 76 80 78 78 78 79 80 80 80 80 82 83 82 81 80 79 79 79 79 79 79 79 78 78 78 78 78
76 74 75 74 74 74 74 73 73 72 71 71 74 73 72 73 74 75 77 79 78 79 79 79 79 79 80 82 81 81 81 80 80 79 79 78 78 78 78 77 78 78 77
76 75 74 74 74 73 74 74 72 72 70 69 70 71 71 71 72 72 75 76 77 78 78 78 78 78 79 79 79 80 80 81 81 80 79 78 78 78 77 77 76 77 77
76 76 74 74 74 74 73 72 72 69 69 69 68 67 67 71 73 73 73 75 75 76 77 76 77 77 77 77 79 78 78 79 79 79 78 76 76 76 75 75 74 75 76
76 76 74 74 74 74 73 71 71 70 69 69 69 68 65 66 67 70 72 72 72 73 74 75 76 76 75 76 76 78 76 76 78 78 77 77 76 76 76 76 75 75 75
76 76 75 74 74 73 71 71 71 70 69 69 69 69 68 68 67 67 70 71 71 73 73 74 75 76 75 75 75 75 76 76 77 78 78 77 76 76 76 76 76 75 75
75 76 75 74 74 73 72 71 70 69 69 69 69 68 67 67 66 66 66 69 70 72 72 73 74 74 75 75 74 74 75 75 75 76 77 77 77 77 77 77 77 76 76
74 75 75 75 74 72 72 71 70 69 69 69 69 69 69 68 67 66 65 65 68 71 71 72 72 73 74 75 75 74 74 74 74 74 75 76 76 77 78 78 78 78 78
73 73 74 74 73 72 72 70 69 69 69 69 68 69 69 69 68 67 67 65 67 68 70 71 73 72 73 73 75 75 75 73 73 71 72 73 74 75 76 76 77 77 78
76 75 75 75 74 72 72 70 70 69 69 69 68 68 69 69 69 68 68 67 65 66 67 71 71 73 73 73 73 73 76 71 71 70 69 70 71 72 73 73 74 75 75
77 75 75 75 74 72 72 70 70 69 69 69 68 68 69 69 69 69 69 69 68 65 66 70 71 71 72 73 73 75 74 71 69 69 68 68 68 69 70 71 71 72 72
76 75 75 75 73 72 71 70 69 69 69 69 69 67 67 68 69 69 69 68 67 68 67 69 70 71 72 74 73 75 74 71 70 69 68 67 67 68 69 69 69 70 70
74 75 75 74 73 72 71 70 69 69 69 68 68 67 67 67 68 69 68 68 67 67 68 69 68 70 71 72 73 73 74 73 74 67 67 67 66 66 67 67 67 67 68
75 75 75 74 74 72 72 71 70 71 69 68 69 67 68 69 67 67 67 67 67 67 68 67 67 69 69 70 71 71 73 76 74 71 67 67 66 65 65 64 64 64 63
74 75 75 74 73 73 71 72 72 71 70 70 70 69 68 67 67 67 68 67 68 68 66 67 69 68 69 69 70 69 70 70 73 70 68 67 67 66 65 64 63 62 60
74 75 74 74 74 74 73 72 72 71 71 71 70 69 69 68 67 67 68 68 68 66 66 64 65 66 68 67 68 66 67 69 69 73 72 68 67 67 65 63 63 63 61
75 75 75 74 74 74 75 72 71 71 70 70 69 69 69 69 68 68 70 68 67 67 65 64 63 65 66 64 63 63 63 64 65 68 70 71 70 71 71 66 67 66 63
75 74 74 74 74 76 70 68 72 71 70 69 67 69 70 68 67 66 67 67 68 67 65 64 63 63 65 65 65 61 61 60 62 68 67 69 68 69 71 70 66 64 62
74 73 74 74 73 74 66 66 68 71 70 69 69 68 67 70 68 69 65 66 65 65 66 66 65 62 64 66 64 61 59 62 63 67 65 64 68 67 70 72 63 62 61
74 73 73 73 73 73 64 64 67 72 70 70 69 69 69 69 68 68 68 68 67 68 66 65 67 67 66 67 65 64 65 63 64 66 64 60 67 65 68 69 62 62 61
75 73 74 73 72 73 62 61 65 71 69 69 69 69 69 69 64 62 68 67 67 65 62 62 62 61 61 60 63 64 60 59 61 64 63 63 65 64 66 67 69 62 59
75 74 73 73 71 73 60 60 64 70 68 68 68 69 64 67 60 59 68 68 66 64 64 64 64 62 62 62 59 65 65 63 61 61 64 62 63 63 62 65 65 67 68
MSLP
1019.07 1019.17 1019.19 1019.22 1019.17 1019.21 1019.19 1019.27 1019.18 1018.99 1019.04 1019.11 1018.99 1019.02 1018.98 1019.08 1019.19 1019.49 1019.76 1019.79 1019.91 1020.01 1020.09 1020.37 1020.48 1020.78 1020.96 1021.21 1021.44 1021.64 1021.84 1021.99 1022.13 1022.25 1022.45 1022.73 1022.83 1022.98 1023.12 1023.15 1023.15 1023.20 1023.31
1019.02 1019.14 1019.23 1019.29 1019.24 1019.21 1019.23 1019.27 1019.12 1019.00 1019.08 1019.15 1019.13 1019.17 1018.96 1019.05 1019.28 1019.49 1019.68 1019.74 1019.82 1019.96 1020.15 1020.14 1020.35 1020.59 1020.91 1021.21 1021.33 1021.45 1021.67 1021.90 1022.04 1022.19 1022.37 1022.56 1022.87 1022.92 1022.96 1023.05 1023.05 1023.13 1023.25
1018.85 1019.01 1019.20 1019.24 1019.07 1019.05 1019.10 1019.18 1019.14 1019.12 1019.36 1019.29 1019.36 1019.29 1019.20 1019.19 1019.25 1019.40 1019.57 1019.77 1019.86 1019.89 1020.02 1020.20 1020.38 1020.63 1020.80 1020.97 1021.28 1021.37 1021.52 1021.69 1021.94 1022.05 1022.17 1022.29 1022.49 1022.67 1022.82 1022.90 1022.98 1023.00 1023.06
1018.55 1018.78 1018.96 1018.96 1018.94 1019.03 1019.00 1019.24 1019.45 1019.59 1019.81 1019.79 1019.61 1019.42 1019.36 1019.22 1019.31 1019.44 1019.63 1019.79 1019.99 1020.04 1020.05 1020.19 1020.28 1020.48 1020.79 1020.96 1021.03 1021.10 1021.48 1021.65 1021.76 1021.82 1021.96 1022.11 1022.21 1022.38 1022.53 1022.64 1022.72 1022.79 1022.86
1018.23 1018.67 1018.73 1018.76 1018.93 1019.06 1019.17 1019.34 1019.63 1019.83 1019.99 1020.04 1019.95 1019.78 1019.81 1019.59 1019.38 1019.46 1019.63 1019.82 1019.99 1020.08 1020.28 1020.32 1020.41 1020.57 1020.70 1020.76 1020.93 1021.05 1021.30 1021.29 1021.53 1021.65 1021.72 1021.78 1021.98 1022.15 1022.25 1022.31 1022.41 1022.52 1022.61
1017.79 1018.15 1018.46 1018.77 1018.94 1019.16 1019.39 1019.53 1019.77 1019.91 1020.12 1020.39 1020.29 1020.29 1020.30 1020.00 1019.80 1019.85 1019.82 1019.74 1019.96 1020.16 1020.40 1020.52 1020.56 1020.68 1020.74 1020.79 1020.81 1020.99 1021.08 1021.10 1021.22 1021.38 1021.48 1021.72 1021.73 1021.88 1022.02 1022.09 1022.15 1022.24 1022.31
1017.36 1017.76 1018.17 1018.63 1018.81 1019.08 1019.24 1019.50 1019.76 1020.10 1020.37 1020.45 1020.55 1020.66 1020.64 1020.52 1020.46 1020.41 1020.27 1020.09 1020.08 1020.16 1020.40 1020.67 1020.84 1020.90 1020.88 1020.94 1020.98 1021.05 1021.04 1021.01 1021.09 1021.20 1021.25 1021.35 1021.49 1021.55 1021.66 1021.78 1021.80 1021.92 1021.85
1017.00 1017.37 1017.82 1018.35 1018.56 1018.94 1019.18 1019.51 1019.73 1020.25 1020.51 1020.48 1020.82 1021.14 1021.20 1021.10 1020.85 1020.84 1020.69 1020.75 1020.70 1020.64 1020.65 1020.79 1020.88 1021.00 1021.15 1021.26 1021.27 1021.30 1021.39 1021.40 1021.37 1021.43 1021.48 1021.50 1021.40 1021.40 1021.60 1021.56 1021.57 1021.50 1021.33
1016.73 1017.03 1017.47 1017.91 1018.28 1018.62 1019.04 1019.30 1019.65 1020.02 1020.35 1020.67 1020.67 1020.89 1021.59 1021.56 1021.56 1021.32 1021.25 1021.23 1021.21 1021.11 1021.10 1021.13 1021.14 1021.29 1021.48 1021.58 1021.59 1021.58 1021.65 1021.69 1021.70 1021.72 1021.71 1021.68 1021.71 1021.75 1021.79 1021.83 1021.72 1021.67 1021.60
1016.37 1016.73 1017.12 1017.58 1017.89 1018.35 1018.83 1018.98 1019.48 1019.95 1020.16 1020.52 1020.79 1020.91 1020.95 1021.14 1021.57 1021.87 1021.57 1021.57 1021.42 1021.39 1021.36 1021.27 1021.29 1021.33 1021.49 1021.65 1021.70 1021.79 1021.79 1021.79 1021.81 1021.80 1021.81 1021.86 1021.93 1021.94 1021.96 1021.90 1021.83 1021.78 1021.75
1016.09 1016.27 1016.69 1017.19 1017.66 1018.05 1018.40 1018.78 1019.29 1019.77 1019.93 1020.27 1020.47 1020.82 1021.11 1021.25 1021.29 1021.52 1021.74 1021.69 1021.65 1021.46 1021.35 1021.35 1021.39 1021.52 1021.53 1021.63 1021.71 1021.75 1021.80 1021.87 1021.85 1021.83 1021.83 1021.82 1021.86 1021.92 1021.99 1021.97 1021.95 1021.91 1021.83
1015.85 1015.94 1016.34 1016.77 1017.23 1017.78 1018.01 1018.46 1018.98 1019.48 1019.71 1020.09 1020.42 1020.57 1020.69 1021.04 1021.24 1021.31 1021.61 1021.77 1021.67 1021.53 1021.37 1021.26 1021.29 1021.20 1021.37 1021.44 1021.50 1021.60 1021.72 1021.80 1021.95 1021.97 1021.90 1021.86 1021.85 1021.86 1021.87 1021.87 1021.83 1021.81 1021.79
1015.63 1015.83 1016.20 1016.52 1016.95 1017.24 1017.53 1018.18 1018.82 1019.21 1019.58 1019.89 1020.12 1020.40 1020.65 1020.77 1020.97 1021.21 1021.39 1021.71 1021.74 1021.72 1021.51 1021.15 1020.88 1020.90 1020.95 1021.12 1021.22 1021.33 1021.47 1021.61 1021.65 1021.78 1021.94 1021.94 1021.92 1021.90 1021.86 1021.83 1021.76 1021.69 1021.65
1014.67 1015.08 1015.59 1015.74 1016.19 1016.71 1017.20 1017.83 1018.49 1018.95 1019.28 1019.55 1019.87 1020.17 1020.48 1020.65 1020.64 1020.74 1020.91 1021.26 1021.76 1021.76 1021.61 1021.09 1020.91 1020.69 1020.71 1020.74 1020.84 1021.13 1021.19 1021.31 1021.46 1021.59 1021.72 1021.84 1021.91 1021.84 1021.72 1021.61 1021.56 1021.54 1021.50
1014.07 1014.52 1014.98 1015.45 1015.84 1016.27 1016.76 1017.42 1018.12 1018.66 1018.93 1019.28 1019.55 1019.80 1020.20 1020.43 1020.50 1020.46 1020.51 1020.58 1020.84 1021.49 1021.47 1020.99 1021.03 1020.81 1020.68 1020.72 1020.85 1020.96 1021.03 1021.15 1021.28 1021.36 1021.49 1021.58 1021.56 1021.49 1021.40 1021.35 1021.30 1021.22 1021.06
1013.44 1013.92 1014.49 1015.01 1015.50 1015.97 1016.45 1017.06 1017.71 1018.21 1018.74 1019.05 1019.27 1019.60 1019.85 1020.03 1020.22 1020.36 1020.51 1020.56 1020.68 1020.89 1021.05 1020.84 1020.77 1020.75 1020.62 1020.62 1020.73 1020.76 1020.83 1020.98 1021.02 1021.10 1021.12 1021.11 1021.09 1020.96 1020.82 1020.79 1020.78 1020.70 1020.55
1012.67 1013.27 1013.80 1014.39 1015.01 1015.52 1015.96 1016.70 1017.21 1017.80 1018.36 1018.70 1018.96 1019.23 1019.42 1019.57 1019.72 1020.09 1020.38 1020.51 1020.62 1020.77 1020.89 1020.79 1020.95 1020.76 1020.71 1020.65 1020.71 1020.91 1020.88 1020.79 1020.72 1020.69 1020.65 1020.68 1020.65 1020.61 1020.55 1020.49 1020.35 1020.19 1020.11
1012.00 1012.60 1013.17 1013.74 1014.33 1014.75 1015.24 1015.84 1016.54 1017.10 1017.64 1018.06 1018.28 1018.76 1019.05 1019.43 1019.49 1019.60 1019.94 1020.30 1020.39 1020.59 1020.67 1020.68 1020.67 1020.67 1020.73 1020.62 1020.63 1020.64 1020.57 1020.43 1020.21 1020.14 1020.21 1020.21 1020.26 1020.28 1020.17 1020.06 1019.97 1019.82 1019.77
1011.09 1011.87 1012.34 1012.80 1013.48 1013.97 1014.52 1015.00 1015.58 1016.09 1016.69 1017.11 1017.48 1017.91 1018.23 1018.68 1018.98 1019.43 1019.54 1019.70 1020.02 1020.19 1020.43 1020.47 1020.33 1020.51 1020.49 1020.45 1020.51 1020.43 1020.43 1020.39 1020.21 1019.90 1019.84 1019.92 1019.87 1019.77 1019.78 1019.76 1019.67 1019.53 1019.52
1010.14 1010.77 1011.27 1011.85 1012.50 1013.25 1013.76 1014.15 1014.67 1015.27 1015.93 1016.36 1016.82 1017.34 1017.68 1017.92 1018.18 1018.68 1019.04 1019.29 1019.37 1019.72 1020.01 1020.29 1020.39 1020.43 1020.57 1020.62 1020.51 1020.44 1020.14 1019.91 1020.00 1019.95 1019.75 1019.82 1019.65 1019.54 1019.57 1019.53 1019.36 1019.11 1019.04
1008.79 1009.53 1010.44 1011.11 1011.68 1012.28 1012.67 1013.23 1013.84 1014.41 1015.13 1015.61 1016.12 1016.65 1016.79 1017.25 1017.56 1017.65 1018.13 1018.40 1018.96 1019.17 1019.46 1019.82 1019.97 1020.20 1020.10 1020.31 1020.36 1020.07 1019.95 1019.95 1019.73 1019.41 1019.25 1019.15 1019.32 1019.15 1018.89 1018.94 1018.83 1018.71 1018.49
1008.00 1008.80 1009.49 1010.16 1010.80 1011.08 1011.51 1012.25 1012.84 1013.63 1014.34 1014.77 1015.31 1015.65 1015.91 1016.36 1016.81 1016.75 1017.30 1017.50 1017.97 1018.39 1018.54 1018.79 1018.89 1019.26 1019.50 1019.62 1019.76 1019.89 1020.02 1020.06 1019.77 1019.15 1019.35 1019.06 1019.22 1018.89 1018.59 1018.57 1018.20 1018.18 1018.15
1006.70 1007.45 1008.36 1009.16 1009.69 1010.24 1010.82 1011.44 1012.10 1012.67 1013.17 1013.62 1014.08 1014.57 1015.09 1015.30 1015.63 1016.09 1016.47 1016.66 1017.12 1017.40 1017.46 1017.88 1018.35 1018.64 1018.71 1018.79 1019.06 1019.27 1019.43 1019.59 1019.59 1019.16 1019.29 1019.08 1018.86 1018.58 1018.08 1017.90 1017.74 1017.75 1017.64
1005.38 1006.23 1007.06 1007.79 1008.64 1009.25 1009.84 1010.47 1011.11 1011.62 1012.09 1012.40 1012.79 1013.28 1013.76 1014.21 1014.67 1015.23 1015.66 1016.09 1016.50 1016.95 1017.07 1017.06 1017.16 1017.32 1017.34 1017.68 1018.15 1018.40 1018.68 1019.19 1019.22 1018.99 1019.38 1019.02 1018.49 1018.17 1017.80 1017.49 1017.37 1017.16 1017.03
1004.52 1004.96 1005.78 1006.70 1007.23 1007.85 1008.52 1009.19 1010.19 1010.81 1011.14 1011.35 1011.77 1012.28 1012.75 1013.33 1013.74 1014.38 1015.14 1015.49 1015.91 1016.31 1016.49 1016.59 1016.89 1017.18 1017.32 1017.58 1017.69 1018.19 1018.47 1018.88 1018.84 1018.50 1018.89 1018.80 1018.19 1018.03 1017.77 1017.22 1016.91 1016.88 1016.77
1003.52 1004.30 1004.71 1005.10 1005.64 1006.26 1007.15 1007.91 1008.93 1009.55 1010.07 1010.52 1011.07 1011.54 1011.65 1012.49 1013.24 1013.98 1014.57 1015.01 1015.77 1016.04 1016.38 1016.71 1016.96 1017.19 1017.45 1017.50 1017.57 1017.65 1017.86 1018.24 1018.71 1018.47 1018.47 1018.76 1018.20 1018.13 1017.55 1017.20 1017.06 1016.67 1016.34
Wind_Speed
3 2 2 2 2 1 1 2 2 2 2 2 1 1 2 3 4 1 1 5 6 7 5 9 12 11 11 10 11 11 10 9 8 6 6 6 6 5 5 5 5 4 4
3 3 2 3 3 2 2 1 1 2 3 3 1 2 2 2 2 3 2 3 5 7 7 7 9 11 11 11 11 11 10 11 9 8 8 6 7 7 8 8 7 6 7
4 3 3 3 3 3 3 1 1 2 2 2 3 1 2 0 2 4 3 3 2 3 6 5 6 7 10 11 12 11 11 9 10 10 9 9 10 8 10 9 9 8 7
5 4 3 3 2 2 1 1 1 2 2 3 2 3 2 2 2 3 3 2 2 1 1 6 6 8 8 8 9 11 9 9 10 10 10 11 10 10 10 10 11 9 9
6 5 4 3 3 1 1 1 1 1 0 2 2 3 3 2 2 1 1 2 3 2 0 3 5 6 7 7 7 7 7 8 9 11 12 11 11 11 10 10 11 10 10
8 6 4 4 3 2 2 2 2 2 2 2 3 4 3 3 3 2 1 2 3 2 1 1 1 0 5 5 2 3 5 6 7 9 11 11 12 11 11 11 11 11 11
7 7 4 4 4 3 3 2 2 2 2 2 2 2 3 5 4 3 2 3 3 3 3 3 1 1 1 1 1 1 1 3 5 6 7 8 10 11 12 11 14 11 13
7 7 6 5 4 3 3 3 3 2 1 1 3 1 2 3 2 4 3 3 3 2 3 3 3 3 3 2 3 6 6 5 5 4 5 7 6 5 6 4 5 6 13
7 7 6 4 5 3 3 3 4 4 3 1 1 3 2 2 0 2 3 2 3 2 2 2 3 3 3 2 3 4 4 3 3 3 3 4 4 3 3 3 5 6 5
7 7 6 5 5 4 4 4 4 3 3 2 1 1 2 3 3 0 1 1 1 2 2 1 1 3 3 2 1 1 3 4 3 2 2 2 2 3 4 4 5 5 6
7 8 7 7 6 4 4 5 4 4 3 3 2 2 1 1 2 2 2 2 1 3 3 3 3 3 4 4 3 3 5 4 4 3 2 1 0 1 3 4 4 5 6
5 7 7 8 6 5 6 5 5 5 4 3 2 2 2 2 2 2 2 2 2 2 3 3 4 4 4 5 6 8 7 7 7 6 5 4 4 4 5 6 6 6 6
3 7 8 8 6 6 6 5 5 5 4 3 4 3 2 2 2 2 2 1 1 1 1 3 3 5 5 5 6 10 9 9 9 7 7 8 8 7 7 8 9 8 8
7 8 9 9 8 8 6 6 4 4 5 4 6 4 3 3 3 3 3 4 1 1 1 3 2 3 4 5 7 10 8 9 10 9 8 8 10 10 10 10 10 11 12
7 8 10 10 9 9 8 8 5 6 5 5 5 5 3 3 3 3 3 2 4 3 2 2 2 1 3 3 4 6 7 6 8 9 9 9 10 11 12 12 12 13 13
9 9 10 10 9 9 9 9 6 5 6 4 4 6 5 3 4 3 2 3 2 3 2 3 3 2 1 1 2 4 5 7 8 9 9 10 11 13 13 13 13 14 15
11 11 11 11 11 11 11 9 8 8 9 7 5 7 7 5 5 4 3 2 3 3 3 1 2 1 2 1 1 2 2 3 4 8 9 9 9 9 10 10 10 11 12
11 12 11 11 11 12 12 12 11 10 11 10 10 8 8 5 6 5 5 5 4 4 3 4 2 2 3 1 2 3 3 2 3 5 5 4 4 5 5 6 7 7 9
13 12 12 13 12 12 12 12 13 12 12 12 11 10 9 8 7 5 6 5 4 4 3 3 3 2 2 1 1 2 3 3 3 4 6 6 5 5 5 3 5 7 8
14 14 14 13 13 12 13 13 13 12 11 10 9 9 10 10 9 8 7 7 6 5 4 3 3 2 2 0 1 2 3 1 3 3 5 5 5 3 4 7 8 8 8
15 15 14 13 13 13 11 13 13 12 12 11 9 9 9 9 11 11 7 7 6 5 4 4 3 3 3 3 4 3 2 2 3 4 3 3 2 3 5 5 7 9 8
15 14 14 15 14 11 15 16 15 12 11 11 11 11 9 14 14 15 15 12 11 8 8 5 3 4 4 3 3 2 2 1 3 2 1 3 1 5 7 6 9 10 9
16 16 15 15 15 14 15 19 18 10 11 12 12 11 9 9 12 8 13 14 11 12 8 7 6 6 5 6 4 3 4 4 5 3 2 5 3 7 7 7 9 10 10
17 16 16 16 14 13 17 19 21 14 11 12 13 13 12 10 10 10 8 8 8 8 8 6 8 7 6 5 5 3 2 2 3 6 4 4 3 5 5 5 9 12 11
15 15 14 15 17 15 20 21 19 14 12 13 12 11 11 10 10 13 9 8 7 5 7 10 6 3 5 7 6 4 3 3 3 3 3 3 2 3 3 6 6 7 10
14 12 15 16 20 17 20 22 21 11 13 10 10 11 14 11 12 14 10 7 6 5 6 5 4 4 5 5 9 6 3 4 3 3 2 4 2 2 4 2 4 6 6
Wind_Direction
247 243 257 293 285 333 299 332 343 10 32 22 22 229 185 216 211 173 257 262 219 222 203 202 195 194 204 203 198 196 204 207 208 216 219 209 207 218 228 233 245 241 260
213 224 243 264 268 249 267 249 21 13 9 337 32 229 237 268 243 195 212 262 273 230 229 205 204 200 206 211 214 206 213 216 214 218 218 229 225 235 233 240 241 251 265
212 197 222 246 248 249 244 246 34 42 16 349 25 146 90 34 187 217 205 233 284 299 209 205 200 204 216 221 215 225 220 218 221 226 226 233 230 236 239 248 254 253 264
198 204 214 234 239 234 186 72 30 21 1 346 28 20 31 20 104 202 222 243 262 247 264 198 195 198 211 219 236 238 229 231 232 237 238 239 237 232 237 240 247 255 256
191 197 207 233 225 200 179 136 52 148 88 26 350 36 26 3 1 126 204 198 236 210 228 267 207 194 207 218 233 240 243 238 235 237 242 247 246 242 232 233 239 245 251
196 184 191 210 187 179 167 146 172 76 73 46 29 39 31 4 56 40 19 86 156 160 139 36 68 260 218 240 196 239 250 246 231 241 250 250 251 245 245 242 240 241 245
192 183 186 188 182 185 191 167 109 102 53 48 59 26 22 33 45 32 6 51 77 106 87 49 24 4 338 182 66 48 29 275 242 250 259 257 257 255 255 255 270 259 270
190 188 183 190 184 177 156 166 144 105 121 132 117 78 54 356 7 13 21 34 38 44 79 65 85 94 82 87 76 69 60 61 69 65 41 33 36 21 342 326 317 278 253
192 192 180 176 182 181 176 189 147 148 171 106 125 130 122 201 347 353 21 41 22 18 33 43 81 88 76 44 55 70 89 78 77 74 61 52 46 32 25 352 354 355 353
197 184 181 183 188 177 178 193 150 162 141 165 123 75 73 135 154 273 345 5 324 279 280 275 206 176 163 165 203 261 159 148 150 144 123 88 32 8 3 357 356 357 356
195 193 186 184 193 187 187 182 162 177 159 153 160 152 114 79 106 135 188 246 290 255 251 238 246 238 215 195 209 232 245 228 213 217 224 202 273 323 324 330 335 340 345
198 200 185 194 188 182 183 186 176 182 173 164 175 173 163 164 177 148 128 202 221 256 260 235 230 232 226 222 212 219 235 239 256 266 267 269 279 299 307 305 305 311 315
183 201 183 192 185 187 184 156 172 183 177 178 176 198 169 170 144 121 123 136 233 300 297 249 258 244 230 222 227 220 232 241 244 251 270 274 277 279 285 295 299 298 298
196 180 188 196 188 178 183 168 178 182 175 189 181 176 177 193 179 165 168 150 134 323 302 248 273 258 252 231 223 229 237 236 244 248 252 266 277 284 283 275 275 281 285
194 182 186 194 187 179 184 175 181 191 184 187 196 181 180 197 206 192 183 168 151 186 246 256 248 270 283 260 243 238 242 248 249 249 246 251 256 261 262 265 270 271 270
192 184 186 189 183 181 183 180 183 181 188 191 199 185 191 192 200 199 193 185 180 171 207 210 217 243 256 257 246 228 235 253 256 253 245 248 255 261 261 261 262 261 263
189 189 189 185 187 184 186 183 193 184 196 195 196 195 200 190 198 192 188 184 185 174 200 271 250 314 285 237 239 268 261 255 262 240 245 247 251 258 260 265 266 262 265
189 192 188 186 189 191 186 188 193 192 198 202 205 194 206 199 210 191 183 199 199 192 174 211 213 227 232 314 268 290 290 248 257 262 260 276 274 265 266 270 275 285 286
189 190 190 189 189 195 188 194 196 195 198 208 204 198 195 192 207 202 204 194 205 188 193 196 220 196 209 185 228 220 231 272 282 265 273 285 290 295 314 297 285 268 263
186 192 196 191 191 195 196 195 195 197 201 211 203 197 200 198 204 198 203 211 202 189 194 189 220 227 245 244 255 266 300 163 297 279 272 269 269 238 270 282 283 293 293
194 193 192 195 191 196 200 195 196 196 195 208 203 196 208 195 227 200 199 200 195 201 188 198 202 197 204 208 220 190 234 291 277 234 270 272 251 262 296 272 278 268 262
192 190 196 195 197 205 199 189 192 194 195 200 201 204 201 198 226 204 204 197 190 198 202 193 191 203 227 214 204 195 207 314 313 177 240 281 239 276 283 277 259 263 268
183 190 193 194 204 210 186 189 192 189 194 197 198 195 197 218 218 205 208 211 203 200 178 182 186 195 201 197 182 183 188 230 251 274 206 271 268 275 281 285 263 264 254
191 188 191 195 199 206 189 192 189 197 199 197 198 196 204 206 199 194 196 196 207 209 201 192 199 205 199 177 187 186 198 251 269 266 219 253 258 267 292 272 268 272 278
192 193 190 188 199 205 185 186 182 197 199 201 199 191 194 202 188 180 190 196 200 204 203 207 207 178 169 175 178 160 200 202 258 264 189 237 237 258 266 279 287 287 288
191 186 192 197 202 205 187 183 184 191 197 196 188 201 188 188 178 180 192 188 196 196 184 160 168 139 169 156 175 203 179 232 227 263 167 220 245 260 279 241 291 282 285